DELTA 1 DEB, 21969

Orbit data source: Space-Track

DELTA 1 DEB, 21969 is space debris in SSO originally from a launch on Thu, 12 Jun 1975 UTC launched from the Air Force Western Test Range (AFWTR). Debris objects in space refer to the collection of defunct objects orbiting the Earth. Examples of debris include non-operational satellites, rocket bodies, and fragments generated from explosions, collisions, or faulty payload assembly.

Loading next visibility...
Identifier
21969, 1975-052JV
Orbit
SSO
Country
Flag of USUS
Related business
Manufacturer
Unknown
Mission
Spacecraft
Bus & Motor
Unknown
Mass
Unknown
Launch date (UTC)
1975-06-12 (50 years ago)
Launch vehicle
Unknown
Launch site
Air Force Western Test Range (AFWTR)
Object type
Payload
Rocket body
Debris
Shape & HBR
Unknown shape, 0.1 m
Radar Cross Section
Small (<0.1 m²)

Expand to show TLE details & history
Last TLE update: 1 day ago

TLE from 1 day ago
0 DELTA 1 DEB
1 21969U 75052JV  25290.48248771  .00000838  00000-0  15422-2 0  9990
2 21969  98.9954 282.9897 0111497 262.9310 251.9733 13.40436550667284
Epoch: 2025-10-17T11:34Z
TLE epoch observation values (Epoch: 2025-10-17T11:34:46.938Z)
Latitude
25.99°
Longitude
-92.5295°
Altitude
1,137.38 km
Speed
7.273 km/s
True Right ascension
07h 09m 34s
True Declination
25° 51' 42"
Sunlit
Object was in daylight at epoch
Visualization orbit readout
Latitude
Unknown
Longitude
Unknown
Altitude
Unknown
Speed
Unknown
Apparent Right ascension
Unknown
Apparent Declination
Unknown
Sunlit
N/A
Visualization observer readout
Local Sidereal Time
14:19:32
Azimuth
Unknown
Elevation
Unknown
Doppler factor
Unknown
Orbital elements
Apogee altitude
1,188.366 km
Perigee altitude
1,021.498 km
Semi-major axis
7,483.069 km
Eccentricity
0.01115
Inclination
98.9954°
RAAN
282.9897°
Arg. of periapsis
262.931°
True anomaly
250.76366°
Mean anomaly
251.9733°
Eccentric anomaly
251.36795°
Mean motion
3.35292 °/min
Orbital period
107.37 mins
BSTAR
0.0015422
Loading maneuver chart data...
Computing Atmospheric mass density...

Documentation

Showing up to 5 results
|